"Pseudo-MPEC" for P10MZRS

Created 2019 Apr 22 11:07:04 UT using Find_Orb

Click here for an explanation of pseudo-MPECs

 
 Astrometry: 
     P10MZRS  C2019 04 08^p=ic\jX(-`jf.jXe/Rcn'Vr6E-Astrometry(7Lredacted;faDF51
     P10MZRS  C2019 04 08VJ\b-BRM*B+p,^Y?iT7yE.jclickKN,I*0*^mlFiysheretAYjMqF51
     P10MZRS  C2019 04 08#(6m\'s6[ZRfor/@UnQ_RD,xg+explanationLa+Q./68Lsu0wR?F51

Station data:
(F51) Pan-STARRS 1, Haleakala  (N20.707235 W156.255910)  US/Hawaii.
   Observers N. Primak, A. Schultz, S. Watters, J. Thiel, T. Goggia. Measurer
   PS1 Science Consortium. 1.8-m Ritchey-Chrétien + CCD.

Orbital elements:  P10MZRS
   Perihelion 2019 Apr 11.637599 +/- 42.6 TT = 15:18:08 (JD 2458585.137599)
Epoch 2019 Apr  9.0 TT = JDT 2458582.5   Earth MOID: 0.2368   AutoNEOCP
M 359.35491752 +/- 31               (J2000 ecliptic)
n   0.24457183 +/- 0.303            Peri.  179.30489 +/- 60
a   2.53239681 +/- 2.11             Node    26.07091 +/- 29
e   0.5102089 +/- 0.268             Incl.   31.86494 +/- 13
P   4.03                   H 23.4   G  0.15   U 11.9  SR
q 1.24034541 +/- 0.342    Q 3.82444821 +/- 28.4
From 3 observations 2019 Apr. 8 (36.2 min); mean residual 0".07
Residuals in arcseconds: 
190408 F51  .01+  .07-    190408 F51  .02-  .13+    190408 F51  .01+  .07-    

Ephemerides (geocentric):
Date (UTC) HH   RA              Dec         delta   r     elong  mag " sig PA
---- -- -- --  -------------   -----------  ------ ------ -----  --- ---- ---
2019 04 22 11  13 59 31.331   -36 29 16.82  .25952 1.2461 155.6 21.9 0.0  161
2019 04 22 12  13 59 19.318   -36 33 54.92  .25965 1.2461 155.5 21.9 0.0  160
2019 04 22 13  13 59 07.293   -36 38 32.58  .25979 1.2462 155.5 21.9 0.0  160
2019 04 22 14  13 58 55.256   -36 43 09.79  .25993 1.2462 155.4 21.9 0.0  160
2019 04 22 15  13 58 43.208   -36 47 46.56  .26006 1.2462 155.3 21.9 0.0  160
2019 04 22 16  13 58 31.149   -36 52 22.88  .26020 1.2463 155.3 21.9 0.0  160
2019 04 22 17  13 58 19.078   -36 56 58.75  .26034 1.2463 155.2 21.9 0.0  160
2019 04 22 18  13 58 06.995   -37 01 34.17  .26048 1.2464 155.2 21.9 0.0  160
2019 04 22 19  13 57 54.901   -37 06 09.13  .26062 1.2464 155.1 21.9 0.0  160
2019 04 22 20  13 57 42.796   -37 10 43.65  .26076 1.2465 155.0 22.0 0.0  160
2019 04 22 21  13 57 30.679   -37 15 17.71  .26090 1.2465 155.0 22.0 0.0  160
2019 04 22 22  13 57 18.552   -37 19 51.31  .26104 1.2466 154.9 22.0 0.0  160
2019 04 22 23  13 57 06.413   -37 24 24.46  .26119 1.2466 154.8 22.0 0.0  160
2019 04 23 00  13 56 54.262   -37 28 57.15  .26133 1.2467 154.8 22.0 0.0  160
2019 04 23 01  13 56 42.101   -37 33 29.38  .26147 1.2467 154.7 22.0 0.0  160
2019 04 23 02  13 56 29.929   -37 38 01.15  .26162 1.2467 154.6 22.0 0.0  160
2019 04 23 03  13 56 17.745   -37 42 32.46  .26177 1.2468 154.6 22.0 0.0  160
2019 04 23 04  13 56 05.551   -37 47 03.31  .26191 1.2468 154.5 22.0 0.0  160
2019 04 23 05  13 55 53.345   -37 51 33.69  .26206 1.2469 154.5 22.0 0.0  160
2019 04 23 06  13 55 41.129   -37 56 03.60  .26221 1.2469 154.4 22.0 0.0  160
2019 04 23 07  13 55 28.902   -38 00 33.06  .26236 1.2470 154.3 22.0 0.0  160
2019 04 23 08  13 55 16.664   -38 05 02.04  .26251 1.2470 154.3 22.0 0.0  160
2019 04 23 09  13 55 04.416   -38 09 30.55  .26266 1.2471 154.2 22.0 0.0  159
2019 04 23 10  13 54 52.157   -38 13 58.60  .26281 1.2471 154.1 22.0 0.0  159
2019 04 23 11  13 54 39.887   -38 18 26.17  .26296 1.2472 154.1 22.0 0.0  159
2019 04 23 12  13 54 27.607   -38 22 53.27  .26311 1.2472 154.0 22.0 0.0  159
2019 04 23 13  13 54 15.316   -38 27 19.90  .26326 1.2473 153.9 22.0 0.0  159
2019 04 23 14  13 54 03.014   -38 31 46.06  .26342 1.2473 153.9 22.0 0.0  159
2019 04 23 15  13 53 50.703   -38 36 11.74  .26357 1.2474 153.8 22.0 0.0  159
2019 04 23 16  13 53 38.380   -38 40 36.95  .26373 1.2474 153.7 22.0 0.0  159
2019 04 23 17  13 53 26.048   -38 45 01.67  .26388 1.2475 153.7 22.0 0.0  159
2019 04 23 18  13 53 13.705   -38 49 25.92  .26404 1.2475 153.6 22.0 0.0  159
2019 04 23 19  13 53 01.352   -38 53 49.70  .26420 1.2476 153.5 22.0 0.0  159
2019 04 23 20  13 52 48.989   -38 58 12.99  .26436 1.2476 153.5 22.0 0.0  159
2019 04 23 21  13 52 36.616   -39 02 35.80  .26451 1.2477 153.4 22.0 0.0  159
2019 04 23 22  13 52 24.233   -39 06 58.13  .26467 1.2477 153.3 22.0 0.0  159
2019 04 23 23  13 52 11.839   -39 11 19.97  .26483 1.2478 153.3 22.0 0.0  159
2019 04 24 00  13 51 59.436   -39 15 41.34  .26499 1.2478 153.2 22.0 0.0  159
2019 04 24 01  13 51 47.023   -39 20 02.22  .26516 1.2479 153.1 22.0 0.0  159
2019 04 24 02  13 51 34.600   -39 24 22.61  .26532 1.2479 153.1 22.0 0.0  159
2019 04 24 03  13 51 22.167   -39 28 42.51  .26548 1.2480 153.0 22.0 0.0  159
2019 04 24 04  13 51 09.725   -39 33 01.93  .26564 1.2480 152.9 22.0 0.0  158
2019 04 24 05  13 50 57.273   -39 37 20.87  .26581 1.2481 152.9 22.0 0.0  158
2019 04 24 06  13 50 44.811   -39 41 39.31  .26597 1.2481 152.8 22.0 0.0  158
2019 04 24 07  13 50 32.339   -39 45 57.26  .26614 1.2482 152.7 22.1 0.0  158
2019 04 24 08  13 50 19.859   -39 50 14.73  .26631 1.2482 152.7 22.1 0.0  158
2019 04 24 09  13 50 07.368   -39 54 31.70  .26647 1.2483 152.6 22.1 0.0  158
2019 04 24 10  13 49 54.869   -39 58 48.18  .26664 1.2483 152.5 22.1 0.0  158